When you browse on this site, cookies collect data to enhance your experience and personalize the content and advertising you see.
Visit our Privacy Policy to learn more. By continuing to use the site, you agree to this use of cookies and data.
  • In Hungary
  • List of Countries
  • For 7 days
  • Water Temperature
  • Weather Map
  • News
  • Weather Widgets
  • user-avatar
    Login

    Hourly Weather Lago de Coatepeque

    Today, 18 November, Monday

    Time Temperature Precipitation Wind Pressure Humidity
    00:00 +18°C° 0 mm 2 mps 688 mmHg 82%
    01:00 +17°C° 0 mm 2 mps 687 mmHg 84%
    02:00 +17°C° 0 mm 2 mps 687 mmHg 86%
    03:00 +17°C° 0 mm 2 mps 687 mmHg 87%
    04:00 +17°C° 0 mm 2 mps 687 mmHg 88%
    05:00 +17°C° 0 mm 2 mps 688 mmHg 88%
    06:00 +16°C° 0 mm 2 mps 688 mmHg 89%
    07:00 +18°C° 0 mm 2 mps 689 mmHg 81%
    08:00 +20°C° 0 mm 2 mps 689 mmHg 73%
    09:00 +23°C° 0 mm 2 mps 690 mmHg 66%
    10:00 +25°C° 0 mm 2 mps 690 mmHg 62%
    11:00 +26°C° 0 mm 2 mps 690 mmHg 58%
    12:00 +27°C° 0 mm 1 mps 689 mmHg 54%
    13:00 +27°C° 0 mm 1 mps 689 mmHg 56%
    14:00 +27°C° 0 mm 1 mps 688 mmHg 57%
    15:00 +27°C° 0 mm 1 mps 688 mmHg 58%
    16:00 +25°C° 0 mm 1 mps 688 mmHg 66%
    17:00 +23°C° 0 mm 1 mps 687 mmHg 74%
    18:00 +21°C° 0 mm 1 mps 687 mmHg 82%
    19:00 +21°C° 0 mm 1 mps 688 mmHg 82%
    20:00 +20°C° 0 mm 1 mps 689 mmHg 82%
    21:00 +20°C° 0 mm 1 mps 689 mmHg 82%
    22:00 +19°C° 0 mm 1 mps 689 mmHg 83%
    23:00 +19°C° 0 mm 1 mps 689 mmHg 84%

    Tomorrow, 19 November, Tuesday

    Time Temperature Precipitation Wind Pressure Humidity
    00:00 +18°C° 0 mm 1 mps 689 mmHg 85%
    01:00 +18°C° 0 mm 1 mps 688 mmHg 86%
    02:00 +18°C° 0 mm 1 mps 688 mmHg 87%
    03:00 +16°C° 0 mm 1 mps 687 mmHg 88%
    04:00 +16°C° 0 mm 1 mps 688 mmHg 89%
    05:00 +16°C° 0 mm 1 mps 688 mmHg 89%
    06:00 +16°C° 0 mm 1 mps 688 mmHg 89%
    07:00 +19°C° 0 mm 1 mps 689 mmHg 81%
    08:00 +21°C° 0 mm 1 mps 690 mmHg 74%
    09:00 +23°C° 0 mm 1 mps 691 mmHg 66%
    10:00 +24°C° 0 mm 1 mps 690 mmHg 62%
    11:00 +26°C° 0 mm 1 mps 690 mmHg 59%
    12:00 +27°C° 0 mm 1 mps 690 mmHg 55%
    13:00 +27°C° 0 mm 1 mps 689 mmHg 57%
    14:00 +27°C° 0 mm 1 mps 689 mmHg 58%
    15:00 +27°C° 0 mm 1 mps 689 mmHg 60%
    16:00 +25°C° 0 mm 1 mps 689 mmHg 68%
    17:00 +23°C° 0 mm 1 mps 689 mmHg 76%
    18:00 +21°C° 0 mm 1 mps 689 mmHg 84%
    19:00 +20°C° 0 mm 1 mps 689 mmHg 82%
    20:00 +20°C° 0 mm 1 mps 689 mmHg 81%
    21:00 +20°C° 0 mm 1 mps 690 mmHg 80%
    22:00 +19°C° 0 mm 1 mps 690 mmHg 79%
    23:00 +19°C° 0 mm 1 mps 689 mmHg 79%

    Day after tomorrow, 20 November, Wednesday

    Time Temperature Precipitation Wind Pressure Humidity
    00:00 +18°C° 0 mm 1 mps 689 mmHg 79%
    01:00 +18°C° 0 mm 1 mps 689 mmHg 79%
    02:00 +18°C° 0 mm 1 mps 689 mmHg 80%
    03:00 +16°C° 0 mm 1 mps 688 mmHg 80%
    04:00 +16°C° 0 mm 1 mps 688 mmHg 82%
    05:00 +16°C° 0 mm 1 mps 689 mmHg 84%
    06:00 +16°C° 0 mm 1 mps 689 mmHg 86%
    07:00 +19°C° 0 mm 1 mps 690 mmHg 79%
    08:00 +21°C° 0 mm 1 mps 690 mmHg 72%
    09:00 +23°C° 0 mm 1 mps 691 mmHg 65%
    10:00 +25°C° 0 mm 1 mps 691 mmHg 60%
    11:00 +26°C° 0 mm 1 mps 691 mmHg 56%
    12:00 +28°C° 0 mm 1 mps 690 mmHg 51%
    13:00 +28°C° 0 mm 1 mps 690 mmHg 53%
    14:00 +27°C° 0 mm 1 mps 689 mmHg 54%
    15:00 +27°C° 0 mm 1 mps 689 mmHg 56%
    16:00 +25°C° 0 mm 1 mps 689 mmHg 65%
    17:00 +23°C° 0 mm 1 mps 689 mmHg 75%
    18:00 +19°C° 0 mm 0 mps 689 mmHg 85%
    19:00 +20°C° 0 mm 1 mps 689 mmHg 84%
    20:00 +20°C° 0 mm 1 mps 689 mmHg 84%
    21:00 +20°C° 0 mm 1 mps 690 mmHg 83%
    22:00 +19°C° 0 mm 1 mps 690 mmHg 84%
    23:00 +19°C° 0 mm 1 mps 689 mmHg 85%

    21 November, Thursday

    Time Temperature Precipitation Wind Pressure Humidity
    00:00 +19°C° 0 mm 1 mps 689 mmHg 86%
    01:00 +18°C° 0 mm 1 mps 689 mmHg 87%
    02:00 +18°C° 0 mm 1 mps 689 mmHg 89%
    03:00 +18°C° 0 mm 1 mps 688 mmHg 90%
    04:00 +18°C° 0 mm 1 mps 688 mmHg 91%
    05:00 +16°C° 0 mm 1 mps 689 mmHg 92%
    06:00 +16°C° 0 mm 1 mps 689 mmHg 92%
    07:00 +20°C° 0 mm 1 mps 690 mmHg 84%
    08:00 +22°C° 0 mm 1 mps 690 mmHg 75%
    09:00 +24°C° 0 mm 1 mps 691 mmHg 66%
    10:00 +26°C° 0 mm 1 mps 691 mmHg 62%
    11:00 +27°C° 0 mm 1 mps 690 mmHg 57%
    12:00 +29°C° 0 mm 1 mps 690 mmHg 53%
    13:00 +29°C° 0 mm 1 mps 690 mmHg 54%
    14:00 +28°C° 0 mm 1 mps 689 mmHg 56%
    15:00 +28°C° 0 mm 1 mps 688 mmHg 57%
    16:00 +26°C° 0 mm 1 mps 688 mmHg 68%
    17:00 +23°C° 0 mm 1 mps 688 mmHg 79%
    18:00 +21°C° 0 mm 1 mps 688 mmHg 89%
    19:00 +21°C° 0 mm 1 mps 688 mmHg 90%
    20:00 +20°C° 0 mm 1 mps 689 mmHg 91%
    21:00 +20°C° 0 mm 1 mps 689 mmHg 91%
    22:00 +20°C° 0 mm 1 mps 689 mmHg 91%
    23:00 +20°C° 0 mm 1 mps 689 mmHg 91%

    22 November, Friday

    Time Temperature Precipitation Wind Pressure Humidity
    00:00 +20°C° 0 mm 1 mps 689 mmHg 91%
    01:00 +19°C° 0 mm 1 mps 688 mmHg 91%
    02:00 +19°C° 0 mm 1 mps 688 mmHg 91%
    03:00 +19°C° 0 mm 1 mps 688 mmHg 92%
    04:00 +19°C° 0 mm 1 mps 688 mmHg 92%
    05:00 +18°C° 0 mm 1 mps 688 mmHg 92%
    06:00 +18°C° 0 mm 1 mps 688 mmHg 92%
    07:00 +21°C° 0 mm 1 mps 689 mmHg 84%
    08:00 +23°C° 0 mm 1 mps 690 mmHg 75%
    09:00 +26°C° 0 mm 1 mps 691 mmHg 66%
    10:00 +27°C° 0 mm 1 mps 690 mmHg 64%
    11:00 +28°C° 0 mm 1 mps 690 mmHg 61%
    12:00 +29°C° 0 mm 1 mps 690 mmHg 58%
    13:00 +28°C° 0.1 mm 1 mps 689 mmHg 61%
    14:00 +28°C° 0.1 mm 1 mps 689 mmHg 64%
    15:00 +27°C° 0.1 mm 1 mps 688 mmHg 67%
    16:00 +25°C° 0.1 mm 1 mps 688 mmHg 77%
    17:00 +23°C° 0.1 mm 1 mps 688 mmHg 86%
    18:00 +22°C° 0.1 mm 1 mps 688 mmHg 95%
    19:00 +19°C° 0 mm 0 mps 688 mmHg 96%
    20:00 +19°C° 0 mm 0 mps 689 mmHg 96%
    21:00 +18°C° 0 mm 0 mps 689 mmHg 97%
    22:00 +18°C° 0 mm 0 mps 689 mmHg 97%
    23:00 +18°C° 0 mm 0 mps 689 mmHg 97%

    23 November, Saturday

    Time Temperature Precipitation Wind Pressure Humidity
    00:00 +18°C° 0 mm 0 mps 689 mmHg 97%
    01:00 +18°C° 0 mm 0 mps 688 mmHg 97%
    02:00 +18°C° 0 mm 0 mps 688 mmHg 97%
    03:00 +18°C° 0 mm 0 mps 688 mmHg 97%
    04:00 +18°C° 0 mm 0 mps 688 mmHg 97%
    05:00 +18°C° 0 mm 0 mps 688 mmHg 96%
    06:00 +20°C° 0 mm 1 mps 688 mmHg 96%
    07:00 +22°C° 0 mm 1 mps 689 mmHg 89%
    08:00 +24°C° 0 mm 1 mps 690 mmHg 82%
    09:00 +26°C° 0 mm 1 mps 691 mmHg 75%
    10:00 +27°C° 0.2 mm 1 mps 690 mmHg 71%
    11:00 +28°C° 0.2 mm 1 mps 690 mmHg 66%
    12:00 +29°C° 0.2 mm 1 mps 690 mmHg 61%
    13:00 +29°C° 0.6 mm 1 mps 689 mmHg 64%
    14:00 +28°C° 0.6 mm 1 mps 689 mmHg 67%
    15:00 +28°C° 0.6 mm 1 mps 688 mmHg 69%
    16:00 +26°C° 0.8 mm 1 mps 688 mmHg 78%
    17:00 +24°C° 0.8 mm 1 mps 688 mmHg 87%
    18:00 +22°C° 0.8 mm 1 mps 688 mmHg 96%
    19:00 +22°C° 0.4 mm 1 mps 689 mmHg 96%
    20:00 +21°C° 0.4 mm 1 mps 689 mmHg 96%
    21:00 +19°C° 0.4 mm 0 mps 689 mmHg 97%
    22:00 +21°C° 0.1 mm 1 mps 689 mmHg 96%
    23:00 +20°C° 0.1 mm 1 mps 689 mmHg 96%
    Show more